Wetterdaten: Montag, 18.05.2015
Datum Zeit Temp. A. Feuchte A. Luftdruck Regen Wind Richtung Richtung Sonnenschein ET UV Solar Taupunkt Windchill Windben Empfang
18.05.2015 00:00 9,7 C 96 % 1021,6 hPa 0,0 l/m 0,0 km/h (0 Bft) S 188 0 min 0,000 mm 0,0 UV-I 0 W/m 9,1 C 9,7 C 0,0 km/h (0 Bft) 0,00 %
18.05.2015 00:15 9,5 C 97 % 1021,8 hPa 0,0 l/m 0,0 km/h (0 Bft) S 186 0 min 0,000 mm 0,0 UV-I 0 W/m 9,0 C 9,5 C 0,0 km/h (0 Bft) 0,00 %
18.05.2015 00:30 9,4 C 97 % 1021,7 hPa 0,0 l/m 0,0 km/h (0 Bft) S 182 0 min 0,000 mm 0,0 UV-I 0 W/m 8,9 C 9,4 C 0,0 km/h (0 Bft) 0,00 %
18.05.2015 00:45 9,2 C 97 % 1021,6 hPa 0,0 l/m 0,0 km/h (0 Bft) S 185 0 min 0,000 mm 0,0 UV-I 0 W/m 8,7 C 9,2 C 0,0 km/h (0 Bft) 0,00 %
18.05.2015 01:00 9,0 C 98 % 1021,5 hPa 0,0 l/m 0,0 km/h (0 Bft) S 179 0 min 0,000 mm 0,0 UV-I 0 W/m 8,7 C 9,0 C 0,0 km/h (0 Bft) 0,00 %
18.05.2015 01:15 9,2 C 98 % 1021,4 hPa 0,0 l/m 0,0 km/h (0 Bft) S 187 0 min 0,000 mm 0,0 UV-I 0 W/m 8,9 C 9,2 C 0,0 km/h (0 Bft) 0,00 %
18.05.2015 01:30 9,2 C 98 % 1021,3 hPa 0,0 l/m 0,0 km/h (0 Bft) S 183 0 min 0,000 mm 0,0 UV-I 0 W/m 8,9 C 9,2 C 0,0 km/h (0 Bft) 0,00 %
18.05.2015 01:45 9,0 C 98 % 1021,1 hPa 0,0 l/m 0,0 km/h (0 Bft) S 182 0 min 0,000 mm 0,0 UV-I 0 W/m 8,7 C 9,0 C 0,0 km/h (0 Bft) 0,00 %
18.05.2015 02:00 9,2 C 99 % 1020,7 hPa 0,0 l/m 0,0 km/h (0 Bft) S 183 0 min 0,000 mm 0,0 UV-I 0 W/m 9,1 C 9,2 C 0,0 km/h (0 Bft) 0,00 %
18.05.2015 02:15 9,4 C 99 % 1020,5 hPa 0,0 l/m 0,0 km/h (0 Bft) S-SW 192 0 min 0,000 mm 0,0 UV-I 0 W/m 9,3 C 9,4 C 0,0 km/h (0 Bft) 0,00 %
18.05.2015 02:30 9,0 C 99 % 1020,7 hPa 0,0 l/m 0,0 km/h (0 Bft) S 185 0 min 0,000 mm 0,0 UV-I 0 W/m 8,9 C 9,0 C 0,0 km/h (0 Bft) 0,00 %
18.05.2015 02:45 8,2 C 99 % 1020,5 hPa 0,0 l/m 0,0 km/h (0 Bft) S 184 0 min 0,000 mm 0,0 UV-I 0 W/m 8,1 C 8,2 C 0,0 km/h (0 Bft) 0,00 %
18.05.2015 03:00 8,1 C 99 % 1020,2 hPa 0,0 l/m 0,0 km/h (0 Bft) S 183 0 min 0,000 mm 0,0 UV-I 0 W/m 8,0 C 8,1 C 0,0 km/h (0 Bft) 0,00 %
18.05.2015 03:15 8,0 C 99 % 1020,1 hPa 0,0 l/m 0,0 km/h (0 Bft) O-SO 113 0 min 0,000 mm 0,0 UV-I 0 W/m 7,9 C 8,0 C 0,0 km/h (0 Bft) 0,00 %
18.05.2015 03:30 8,2 C 99 % 1019,8 hPa 0,0 l/m 0,0 km/h (0 Bft) SO 125 0 min 0,000 mm 0,0 UV-I 0 W/m 8,1 C 8,2 C 0,0 km/h (0 Bft) 0,00 %
18.05.2015 03:45 8,3 C 99 % 1019,6 hPa 0,0 l/m 0,0 km/h (0 Bft) SO 130 0 min 0,000 mm 0,0 UV-I 0 W/m 8,2 C 8,3 C 0,0 km/h (0 Bft) 0,00 %
18.05.2015 04:00 8,0 C 99 % 1019,7 hPa 0,0 l/m 0,0 km/h (0 Bft) S 182 0 min 0,000 mm 0,0 UV-I 0 W/m 7,9 C 8,0 C 0,0 km/h (0 Bft) 0,00 %
18.05.2015 04:15 7,6 C 99 % 1019,6 hPa 0,0 l/m 0,0 km/h (0 Bft) S 182 0 min 0,000 mm 0,0 UV-I 0 W/m 7,5 C 7,6 C 0,0 km/h (0 Bft) 0,00 %
18.05.2015 04:30 7,6 C 99 % 1019,4 hPa 0,0 l/m 0,0 km/h (0 Bft) S 187 0 min 0,000 mm 0,0 UV-I 0 W/m 7,5 C 7,6 C 0,0 km/h (0 Bft) 0,00 %
18.05.2015 04:45 7,8 C 99 % 1019,1 hPa 0,0 l/m 0,0 km/h (0 Bft) S 174 0 min 0,000 mm 0,0 UV-I 0 W/m 7,7 C 7,8 C 0,0 km/h (0 Bft) 0,00 %
18.05.2015 05:00 7,9 C 99 % 1019,1 hPa 0,0 l/m 0,0 km/h (0 Bft) S 182 0 min 0,000 mm 0,0 UV-I 0 W/m 7,8 C 7,9 C 0,0 km/h (0 Bft) 0,00 %
18.05.2015 05:15 7,7 C 99 % 1019,2 hPa 0,0 l/m 0,0 km/h (0 Bft) S 183 0 min 0,000 mm 0,0 UV-I 0 W/m 7,6 C 7,7 C 0,0 km/h (0 Bft) 0,00 %
18.05.2015 05:30 7,5 C 99 % 1019,0 hPa 0,0 l/m 0,0 km/h (0 Bft) SO 128 0 min 0,000 mm 0,0 UV-I 2 W/m 7,4 C 7,5 C 0,0 km/h (0 Bft) 0,00 %
18.05.2015 05:45 8,0 C 99 % 1018,8 hPa 0,0 l/m 0,7 km/h (0 Bft) SO 129 0 min 0,000 mm 0,0 UV-I 9 W/m 7,9 C 8,0 C 4,0 km/h (1 Bft) 0,00 %
18.05.2015 06:00 8,5 C 99 % 1018,9 hPa 0,0 l/m 0,0 km/h (0 Bft) S 173 15 min 0,000 mm 0,0 UV-I 57 W/m 8,4 C 8,5 C 0,0 km/h (0 Bft) 0,00 %
18.05.2015 06:15 8,9 C 99 % 1018,6 hPa 0,0 l/m 0,4 km/h (0 Bft) SO 140 15 min 0,000 mm 0,0 UV-I 90 W/m 8,8 C 8,9 C 4,0 km/h (1 Bft) 0,00 %
18.05.2015 06:30 9,3 C 99 % 1018,3 hPa 0,0 l/m 0,0 km/h (0 Bft) S 177 15 min 0,000 mm 1,0 UV-I 160 W/m 9,2 C 9,3 C 0,0 km/h (0 Bft) 0,00 %
18.05.2015 06:45 10,1 C 99 % 1018,1 hPa 0,0 l/m 0,0 km/h (0 Bft) SO 142 15 min 0,000 mm 1,0 UV-I 183 W/m 9,9 C 10,1 C 0,0 km/h (0 Bft) 0,00 %
18.05.2015 07:00 10,5 C 94 % 1018,1 hPa 0,0 l/m 4,3 km/h (1 Bft) O 96 15 min 0,000 mm 1,0 UV-I 238 W/m 9,6 C 10,5 C 7,9 km/h (2 Bft) 0,00 %
18.05.2015 07:15 10,3 C 91 % 1017,9 hPa 0,0 l/m 0,0 km/h (0 Bft) SO 136 15 min 0,000 mm 1,0 UV-I 247 W/m 8,9 C 10,3 C 0,0 km/h (0 Bft) 0,00 %
18.05.2015 07:30 11,2 C 86 % 1017,6 hPa 0,0 l/m 5,4 km/h (1 Bft) O 91 15 min 0,000 mm 1,0 UV-I 327 W/m 8,9 C 11,2 C 7,9 km/h (2 Bft) 0,00 %
18.05.2015 07:45 11,3 C 84 % 1017,4 hPa 0,0 l/m 0,0 km/h (0 Bft) O-SO 112 15 min 0,000 mm 1,0 UV-I 236 W/m 8,7 C 11,3 C 0,0 km/h (0 Bft) 0,00 %
18.05.2015 08:00 11,3 C 83 % 1017,2 hPa 0,0 l/m 0,0 km/h (0 Bft) O-SO 112 15 min 0,000 mm 2,0 UV-I 270 W/m 8,5 C 11,3 C 0,0 km/h (0 Bft) 0,00 %
18.05.2015 08:15 12,3 C 80 % 1016,9 hPa 0,0 l/m 3,2 km/h (1 Bft) O-NO 64 15 min 0,000 mm 2,0 UV-I 312 W/m 8,9 C 12,3 C 7,9 km/h (2 Bft) 0,00 %
18.05.2015 08:30 12,3 C 79 % 1016,7 hPa 0,0 l/m 3,2 km/h (1 Bft) O-NO 67 15 min 0,000 mm 2,0 UV-I 387 W/m 8,8 C 12,3 C 7,9 km/h (2 Bft) 0,00 %
18.05.2015 08:45 13,0 C 76 % 1016,7 hPa 0,0 l/m 6,5 km/h (2 Bft) O-SO 112 15 min 0,000 mm 2,0 UV-I 442 W/m 8,9 C 13,0 C 7,9 km/h (2 Bft) 0,00 %
18.05.2015 09:00 13,6 C 73 % 1016,2 hPa 0,0 l/m 0,7 km/h (0 Bft) N-NO 31 15 min 0,000 mm 2,0 UV-I 415 W/m 8,9 C 13,6 C 4,0 km/h (1 Bft) 0,00 %
18.05.2015 09:15 13,6 C 72 % 1015,9 hPa 0,0 l/m 4,3 km/h (1 Bft) NO 47 15 min 0,000 mm 3,0 UV-I 422 W/m 8,6 C 13,6 C 7,9 km/h (2 Bft) 0,00 %
18.05.2015 09:30 14,5 C 70 % 1015,6 hPa 0,0 l/m 1,8 km/h (1 Bft) SO 145 15 min 0,000 mm 3,0 UV-I 487 W/m 9,1 C 14,5 C 4,0 km/h (1 Bft) 0,00 %
18.05.2015 09:45 15,2 C 69 % 1015,3 hPa 0,0 l/m 1,4 km/h (1 Bft) SO 130 15 min 0,000 mm 3,0 UV-I 512 W/m 9,6 C 15,2 C 4,0 km/h (1 Bft) 0,00 %
18.05.2015 10:00 15,1 C 68 % 1015,1 hPa 0,0 l/m 2,9 km/h (1 Bft) O-SO 117 15 min 0,000 mm 3,0 UV-I 493 W/m 9,2 C 15,1 C 4,0 km/h (1 Bft) 0,00 %
18.05.2015 10:15 15,7 C 66 % 1014,8 hPa 0,0 l/m 0,0 km/h (0 Bft) O-SO 111 15 min 0,000 mm 4,0 UV-I 604 W/m 9,4 C 15,7 C 0,0 km/h (0 Bft) 0,00 %
18.05.2015 10:30 16,6 C 64 % 1014,5 hPa 0,0 l/m 4,0 km/h (1 Bft) O-SO 113 15 min 0,000 mm 4,0 UV-I 630 W/m 9,8 C 16,6 C 4,0 km/h (1 Bft) 0,00 %
18.05.2015 10:45 17,0 C 63 % 1014,1 hPa 0,0 l/m 5,4 km/h (1 Bft) S 177 15 min 0,000 mm 4,0 UV-I 653 W/m 9,9 C 17,0 C 11,9 km/h (2 Bft) 0,00 %
18.05.2015 11:00 17,8 C 60 % 1013,9 hPa 0,0 l/m 1,8 km/h (1 Bft) O-SO 105 15 min 0,000 mm 4,0 UV-I 655 W/m 9,9 C 17,8 C 4,0 km/h (1 Bft) 0,00 %
18.05.2015 11:15 17,8 C 59 % 1013,5 hPa 0,0 l/m 2,9 km/h (1 Bft) O-NO 62 15 min 0,000 mm 5,0 UV-I 696 W/m 9,7 C 17,8 C 7,9 km/h (2 Bft) 0,00 %
18.05.2015 11:30 18,0 C 61 % 1013,3 hPa 0,0 l/m 9,0 km/h (2 Bft) O-SO 108 15 min 0,000 mm 5,0 UV-I 725 W/m 10,4 C 16,8 C 11,9 km/h (2 Bft) 0,00 %
18.05.2015 11:45 19,1 C 54 % 1012,9 hPa 0,0 l/m 4,0 km/h (1 Bft) O-SO 107 15 min 0,000 mm 6,0 UV-I 735 W/m 9,6 C 19,1 C 7,9 km/h (2 Bft) 0,00 %
18.05.2015 12:00 18,9 C 52 % 1012,7 hPa 0,0 l/m 5,8 km/h (2 Bft) O 96 15 min 0,000 mm 6,0 UV-I 759 W/m 8,8 C 18,9 C 11,9 km/h (2 Bft) 0,00 %
18.05.2015 12:15 19,3 C 50 % 1012,4 hPa 0,0 l/m 7,9 km/h (2 Bft) O 90 15 min 0,000 mm 6,0 UV-I 755 W/m 8,6 C 18,7 C 11,9 km/h (2 Bft) 0,00 %
18.05.2015 12:30 19,8 C 50 % 1011,9 hPa 0,0 l/m 9,7 km/h (2 Bft) O-SO 117 15 min 0,000 mm 6,0 UV-I 778 W/m 9,1 C 18,5 C 11,9 km/h (2 Bft) 0,00 %
18.05.2015 12:45 20,1 C 50 % 1011,4 hPa 0,0 l/m 6,8 km/h (2 Bft) O 96 15 min 0,000 mm 6,0 UV-I 799 W/m 9,3 C 19,9 C 15,8 km/h (3 Bft) 0,00 %
18.05.2015 13:00 20,2 C 50 % 1011,1 hPa 0,0 l/m 4,3 km/h (1 Bft) O-SO 106 15 min 0,000 mm 6,0 UV-I 813 W/m 9,4 C 20,2 C 7,9 km/h (2 Bft) 0,00 %
18.05.2015 13:15 20,6 C 46 % 1010,6 hPa 0,0 l/m 1,4 km/h (1 Bft) O 100 15 min 0,000 mm 6,0 UV-I 831 W/m 8,6 C 20,6 C 4,0 km/h (1 Bft) 0,00 %
18.05.2015 13:30 20,7 C 47 % 1010,3 hPa 0,0 l/m 4,0 km/h (1 Bft) NO 56 15 min 0,000 mm 6,0 UV-I 831 W/m 9,0 C 20,7 C 7,9 km/h (2 Bft) 0,00 %
18.05.2015 13:45 21,1 C 47 % 1010,0 hPa 0,0 l/m 7,2 km/h (2 Bft) O 87 15 min 0,000 mm 6,0 UV-I 855 W/m 9,3 C 20,8 C 11,9 km/h (2 Bft) 0,00 %
18.05.2015 14:00 21,4 C 48 % 1009,7 hPa 0,0 l/m 0,7 km/h (0 Bft) N-NW 333 15 min 0,000 mm 5,0 UV-I 853 W/m 9,9 C 21,4 C 4,0 km/h (1 Bft) 0,00 %
18.05.2015 14:15 21,7 C 48 % 1009,3 hPa 0,0 l/m 4,7 km/h (1 Bft) O 92 15 min 0,000 mm 5,0 UV-I 875 W/m 10,2 C 21,7 C 7,9 km/h (2 Bft) 0,00 %
18.05.2015 14:30 22,3 C 43 % 1008,9 hPa 0,0 l/m 5,8 km/h (2 Bft) O 101 15 min 0,000 mm 5,0 UV-I 888 W/m 9,1 C 22,3 C 11,9 km/h (2 Bft) 0,00 %
18.05.2015 14:45 22,5 C 47 % 1008,8 hPa 0,0 l/m 3,2 km/h (1 Bft) W-NW 283 15 min 0,000 mm 5,0 UV-I 878 W/m 10,6 C 22,5 C 4,0 km/h (1 Bft) 0,00 %
18.05.2015 15:00 22,5 C 48 % 1008,4 hPa 0,0 l/m 0,7 km/h (0 Bft) O 95 15 min 0,000 mm 5,0 UV-I 888 W/m 10,9 C 22,5 C 4,0 km/h (1 Bft) 0,00 %
18.05.2015 15:15 22,6 C 48 % 1008,2 hPa 0,0 l/m 9,7 km/h (2 Bft) O 97 15 min 0,000 mm 5,0 UV-I 879 W/m 11,0 C 21,6 C 11,9 km/h (2 Bft) 0,00 %
18.05.2015 15:30 23,1 C 47 % 1007,7 hPa 0,0 l/m 2,2 km/h (1 Bft) O-SO 118 15 min 0,000 mm 4,0 UV-I 874 W/m 11,2 C 23,1 C 4,0 km/h (1 Bft) 0,00 %
18.05.2015 15:45 22,9 C 47 % 1007,4 hPa 0,0 l/m 5,4 km/h (1 Bft) O-NO 66 15 min 0,000 mm 2,0 UV-I 864 W/m 11,0 C 22,9 C 7,9 km/h (2 Bft) 0,00 %
18.05.2015 16:00 22,9 C 48 % 1007,4 hPa 0,0 l/m 0,0 km/h (0 Bft) N 350 15 min 0,000 mm 2,0 UV-I 863 W/m 11,3 C 22,9 C 0,0 km/h (0 Bft) 0,00 %
18.05.2015 16:15 23,3 C 46 % 1006,9 hPa 0,0 l/m 9,7 km/h (2 Bft) O-SO 107 15 min 0,000 mm 2,0 UV-I 859 W/m 11,0 C 22,4 C 11,9 km/h (2 Bft) 0,00 %
18.05.2015 16:30 23,1 C 48 % 1006,6 hPa 0,0 l/m 3,2 km/h (1 Bft) O 96 15 min 0,000 mm 2,0 UV-I 839 W/m 11,5 C 23,1 C 4,0 km/h (1 Bft) 0,00 %
18.05.2015 16:45 23,1 C 49 % 1006,3 hPa 0,0 l/m 5,8 km/h (2 Bft) SO 124 15 min 0,000 mm 2,0 UV-I 816 W/m 11,8 C 23,1 C 7,9 km/h (2 Bft) 0,00 %
18.05.2015 17:00 23,0 C 51 % 1006,1 hPa 0,0 l/m 9,0 km/h (2 Bft) O-SO 105 15 min 0,000 mm 2,0 UV-I 797 W/m 12,3 C 22,2 C 11,9 km/h (2 Bft) 0,00 %
18.05.2015 17:15 23,1 C 52 % 1005,8 hPa 0,0 l/m 8,3 km/h (2 Bft) O-SO 102 15 min 0,000 mm 1,0 UV-I 780 W/m 12,7 C 22,5 C 11,9 km/h (2 Bft) 0,00 %
18.05.2015 17:30 23,1 C 52 % 1005,6 hPa 0,0 l/m 4,7 km/h (1 Bft) NO 54 15 min 0,000 mm 1,0 UV-I 753 W/m 12,7 C 23,1 C 7,9 km/h (2 Bft) 0,00 %
18.05.2015 17:45 23,2 C 52 % 1005,4 hPa 0,0 l/m 2,2 km/h (1 Bft) O 97 15 min 0,000 mm 1,0 UV-I 731 W/m 12,8 C 23,2 C 4,0 km/h (1 Bft) 0,00 %
18.05.2015 18:00 23,1 C 52 % 1004,9 hPa 0,0 l/m 7,2 km/h (2 Bft) O-SO 115 15 min 0,000 mm 1,0 UV-I 702 W/m 12,7 C 22,8 C 11,9 km/h (2 Bft) 0,00 %
18.05.2015 18:15 23,0 C 52 % 1004,7 hPa 0,0 l/m 8,3 km/h (2 Bft) O-SO 111 15 min 0,000 mm 1,0 UV-I 662 W/m 12,6 C 22,4 C 11,9 km/h (2 Bft) 0,00 %
18.05.2015 18:30 22,8 C 53 % 1004,8 hPa 0,0 l/m 4,7 km/h (1 Bft) O-SO 112 15 min 0,000 mm 1,0 UV-I 605 W/m 12,7 C 22,8 C 7,9 km/h (2 Bft) 0,00 %
18.05.2015 18:45 22,7 C 54 % 1004,5 hPa 0,0 l/m 1,8 km/h (1 Bft) O-SO 118 15 min 0,000 mm 1,0 UV-I 548 W/m 12,9 C 22,7 C 4,0 km/h (1 Bft) 0,00 %
18.05.2015 19:00 22,6 C 53 % 1004,3 hPa 0,0 l/m 4,7 km/h (1 Bft) O-SO 114 15 min 0,000 mm 1,0 UV-I 482 W/m 12,5 C 22,6 C 7,9 km/h (2 Bft) 0,00 %
18.05.2015 19:15 22,6 C 55 % 1004,3 hPa 0,0 l/m 0,7 km/h (0 Bft) O-SO 109 15 min 0,000 mm 1,0 UV-I 415 W/m 13,1 C 22,6 C 4,0 km/h (1 Bft) 0,00 %
18.05.2015 19:30 22,3 C 57 % 1004,3 hPa 0,0 l/m 0,0 km/h (0 Bft) N-NO 24 15 min 0,000 mm 1,0 UV-I 324 W/m 13,4 C 22,3 C 0,0 km/h (0 Bft) 0,00 %
18.05.2015 19:45 21,9 C 57 % 1004,1 hPa 0,0 l/m 0,0 km/h (0 Bft) O 101 15 min 0,000 mm 0,0 UV-I 240 W/m 13,0 C 21,9 C 0,0 km/h (0 Bft) 0,00 %
18.05.2015 20:00 21,4 C 60 % 1004,3 hPa 0,0 l/m 0,0 km/h (0 Bft) SO 142 15 min 0,000 mm 0,0 UV-I 100 W/m 13,3 C 21,4 C 0,0 km/h (0 Bft) 0,00 %
18.05.2015 20:15 20,3 C 63 % 1004,3 hPa 0,0 l/m 0,0 km/h (0 Bft) O 97 0 min 0,000 mm 0,0 UV-I 25 W/m 13,0 C 20,3 C 0,0 km/h (0 Bft) 0,00 %
18.05.2015 20:30 19,7 C 64 % 1004,3 hPa 0,0 l/m 0,0 km/h (0 Bft) SO 125 0 min 0,000 mm 0,0 UV-I 11 W/m 12,7 C 19,7 C 0,0 km/h (0 Bft) 0,00 %
18.05.2015 20:45 19,5 C 67 % 1004,4 hPa 0,0 l/m 0,0 km/h (0 Bft) SO 140 0 min 0,000 mm 0,0 UV-I 0 W/m 13,2 C 19,5 C 0,0 km/h (0 Bft) 0,00 %
18.05.2015 21:00 19,1 C 67 % 1004,6 hPa 0,0 l/m 0,0 km/h (0 Bft) S 175 0 min 0,000 mm 0,0 UV-I 0 W/m 12,8 C 19,1 C 0,0 km/h (0 Bft) 0,00 %
18.05.2015 21:15 18,7 C 67 % 1004,7 hPa 0,0 l/m 0,0 km/h (0 Bft) O-SO 115 0 min 0,000 mm 0,0 UV-I 0 W/m 12,4 C 18,7 C 0,0 km/h (0 Bft) 0,00 %
18.05.2015 21:30 18,5 C 69 % 1004,7 hPa 0,0 l/m 0,0 km/h (0 Bft) SO 128 0 min 0,000 mm 0,0 UV-I 0 W/m 12,7 C 18,5 C 0,0 km/h (0 Bft) 0,00 %
18.05.2015 21:45 18,2 C 69 % 1004,9 hPa 0,0 l/m 0,0 km/h (0 Bft) SO 142 0 min 0,000 mm 0,0 UV-I 0 W/m 12,4 C 18,2 C 0,0 km/h (0 Bft) 0,00 %
18.05.2015 22:00 18,0 C 69 % 1004,9 hPa 0,0 l/m 0,0 km/h (0 Bft) SO 143 0 min 0,000 mm 0,0 UV-I 0 W/m 12,2 C 18,0 C 0,0 km/h (0 Bft) 0,00 %
18.05.2015 22:15 17,6 C 70 % 1004,9 hPa 0,0 l/m 0,0 km/h (0 Bft) SO 143 0 min 0,000 mm 0,0 UV-I 0 W/m 12,1 C 17,6 C 0,0 km/h (0 Bft) 0,00 %
18.05.2015 22:30 17,2 C 70 % 1005,1 hPa 0,0 l/m 0,0 km/h (0 Bft) SO 143 0 min 0,000 mm 0,0 UV-I 0 W/m 11,7 C 17,2 C 0,0 km/h (0 Bft) 0,00 %
18.05.2015 22:45 16,9 C 71 % 1004,9 hPa 0,0 l/m 0,0 km/h (0 Bft) S 170 0 min 0,000 mm 0,0 UV-I 0 W/m 11,6 C 16,9 C 0,0 km/h (0 Bft) 0,00 %
18.05.2015 23:00 15,9 C 78 % 1005,2 hPa 0,0 l/m 0,0 km/h (0 Bft) S 184 0 min 0,000 mm 0,0 UV-I 0 W/m 12,1 C 15,9 C 0,0 km/h (0 Bft) 0,00 %
18.05.2015 23:15 15,5 C 80 % 1005,4 hPa 0,0 l/m 0,0 km/h (0 Bft) S 184 0 min 0,000 mm 0,0 UV-I 0 W/m 12,1 C 15,5 C 0,0 km/h (0 Bft) 0,00 %
18.05.2015 23:30 14,9 C 83 % 1005,6 hPa 0,0 l/m 0,0 km/h (0 Bft) S 180 0 min 0,000 mm 0,0 UV-I 0 W/m 12,0 C 14,9 C 0,0 km/h (0 Bft) 0,00 %
18.05.2015 23:45 14,7 C 83 % 1006,0 hPa 0,0 l/m 0,0 km/h (0 Bft) S 182 0 min 0,000 mm 0,0 UV-I 0 W/m 11,8 C 14,7 C 0,0 km/h (0 Bft) 0,00 %
_ Min-Zeit 05:30 14:30 19:45 - 00:00 - - - - - - 05:30 05:30 00:00 00:00
Minimum _ 7,5 C 43 % 1004,1 hPa - 0,0 km/h (0 Bft) - - - - - - 7,4 C 7,5 C 0,0 km/h (0 Bft) 0,00 %
_ Max-Zeit 16:15 02:00 00:15 00:00 12:30 - - 06:00 00:00 11:45 14:30 19:30 17:45 12:45 00:00
Maximum _ 23,3 C 99 % 1021,8 hPa 0,0 l/m 9,7 km/h
O-SO (2 Bft)
- - 15 min 0,000 mm 6,0 UV-I 888 W/m 13,4 C 23,2 C 15,8 km/h
O (3 Bft)
0,00 %
Durchschnitt _ 15,9 C 72 % 1012,4 hPa #0,0 l/m 2,2 km/h (1 Bft) O-SO - #14:15 h #0,000 mm 3,1 UV-I 557 W/m 10,2 C 15,8 C 3,8 km/h (1 Bft) 0,00 %